Regional Weather Roundup
Issued by NWS Little Rock, AR

Home | Current Version | Previous Version | Graphics & Text | Print | Product List | Glossary On
Versions: 1 2 3 4 5 6 7 8 9 10 11 12 13 14 15 16 17 18 19 20 21 22 23 24 25 26 27
000
ASUS44 KLZK 260505
RWRLZK

WEATHER ROUNDUP FOR ARKANSAS
NATIONAL WEATHER SERVICE LITTLE ROCK AR
1200 AM CDT TUE JUL 26 2016

NOTE: "FAIR" INDICATES FEW OR NO CLOUDS BELOW 12,000 FEET WITH NO
SIGNIFICANT WEATHER AND/OR OBSTRUCTIONS TO VISIBILITY.

ARZ001-003-010-029-260600-
NORTHWEST ARKANSAS

CITY           SKY/WX    TMP DP  RH WIND       PRES   REMARKS
FAYETTEVILLE   CLEAR     74  73  97 CALM      30.04R
FORT SMITH     CLEAR     80  74  81 E5        29.97R HX  85
HARRISON       PTCLDY    74  72  93 N3        30.04F
BENTONVILLE    PTCLDY    75  70  83 NE3       30.05R
ROGERS         CLEAR     76  72  87 E3        30.05S
SILOAM SPGS    CLEAR     75  64  69 CALM      30.04S
HIGHFILL       CLEAR     77  74  90 N5        30.04R
$$

ARZ004-005-016-260600-
NORTH CENTRAL ARKANSAS

CITY           SKY/WX    TMP DP  RH WIND       PRES   REMARKS
BATESVILLE     CLOUDY    75  72  88 NW3       30.00F
FLIPPIN        CLOUDY    75  68  78 CALM      29.99F
MTN HOME         N/A     73  72  96 CALM      30.02F
$$

ARZ040-041-260600-
WEST CENTRAL ARKANSAS

CITY           SKY/WX    TMP DP  RH WIND       PRES   REMARKS
MENA           CLEAR     77  75  94 CALM      30.00R
MOUNT IDA      PTCLDY    77  76  96 CALM      29.97R FOG
$$

ARZ009-017-025-026-028-260600-
NORTHEAST ARKANSAS

CITY           SKY/WX    TMP DP  RH WIND       PRES   REMARKS
CORNING          N/A     77  77 100 E3        29.99F
JONESBORO      CLEAR     79  77  94 CALM      29.98F
NEWPORT        CLEAR     79  79 100 N5        29.99F
WALNUT RIDGE   CLOUDY    79  75  89 NE5       29.97F
BLYTHEVILLE    CLEAR     80  77  90 SE5       30.00R HX  87
$$

ARZ022-023-033-042-044-260600-
CENTRAL ARKANSAS

CITY           SKY/WX    TMP DP  RH WIND       PRES   REMARKS
LITTLE ROCK    PTCLDY    86  75  69 CALM      29.95F HX  95
N LITTLE ROCK    N/A     82  76  80 CALM      29.93F HX  89
JACKSONVILLE   CLEAR     81  77  88 CALM      29.96F HX  87
SEARCY         CLEAR     82  77  84 N3        29.98F HX  90
HOT SPRINGS    CLEAR     79  76  90 E5        29.97F
RUSSELLVILLE   CLOUDY    75  72  90 NW3       29.97S
$$

ARZ036-260600-
EAST ARKANSAS

CITY           SKY/WX    TMP DP  RH WIND       PRES   REMARKS
WEST MEMPHIS   CLEAR     78  76  93 CALM      29.97S
$$

ARZ050-053-066-070-073-260600-
SOUTHWEST ARKANSAS

CITY           SKY/WX    TMP DP  RH WIND       PRES   REMARKS
CAMDEN         CLEAR     77  73  88 CALM      29.94S
TEXARKANA      PTCLDY    80  74  81 SE5       29.93F HX  85
EL DORADO      CLEAR     78  76  93 CALM      29.94F
DE QUEEN       CLEAR     77  76  96 CALM      29.92S FOG
$$

ARZ056-057-069-260600-
SOUTHEAST ARKANSAS

CITY           SKY/WX    TMP DP  RH WIND       PRES   REMARKS
PINE BLUFF     CLEAR     78  76  93 CALM      29.96F
STUTTGART      CLEAR     82  73  74 E3        29.96F HX  88
MONTICELLO     CLEAR     79  76  90 CALM      29.95S

$$






USA.gov is the U.S. government's official web portal to all federal, state and local government web resources and services.